TimeMST,TemperatureF,Dew PointF,Humidity,Sea Level PressureIn,VisibilityMPH,Wind Direction,Wind SpeedMPH,Gust SpeedMPH,PrecipitationIn,Events,Conditions,WindDirDegrees,DateUTC
12:15 AM,80.6,37.4,21,29.59,10.0,NE,16.1,-,N/A,,Clear,40,2013-09-22 07:15:00
12:35 AM,80.6,37.4,21,29.58,10.0,NE,19.6,-,N/A,,Clear,50,2013-09-22 07:35:00
12:55 AM,80.6,39.2,23,29.59,10.0,ENE,18.4,-,N/A,,Clear,60,2013-09-22 07:55:00
1:15 AM,80.6,39.2,23,29.60,10.0,ENE,15.0,-,N/A,,Clear,70,2013-09-22 08:15:00
1:35 AM,78.8,39.2,24,29.60,10.0,East,12.7,-,N/A,,Clear,80,2013-09-22 08:35:00
1:55 AM,77.0,39.2,26,29.60,10.0,ENE,13.8,-,N/A,,Clear,70,2013-09-22 08:55:00
2:15 AM,77.0,41.0,28,29.60,10.0,ENE,11.5,-,N/A,,Clear,70,2013-09-22 09:15:00
2:35 AM,77.0,41.0,28,29.60,10.0,East,10.4,-,N/A,,Clear,80,2013-09-22 09:35:00
2:55 AM,75.2,42.8,31,29.60,10.0,East,9.2,-,N/A,,Unknown,90,2013-09-22 09:55:00
3:15 AM,75.2,39.2,27,29.61,10.0,East,12.7,-,N/A,,Clear,100,2013-09-22 10:15:00
3:35 AM,75.2,41.0,29,29.62,10.0,East,5.8,-,N/A,,Clear,90,2013-09-22 10:35:00
3:55 AM,73.4,39.2,29,29.63,10.0,ENE,10.4,-,N/A,,Clear,60,2013-09-22 10:55:00
4:15 AM,73.4,39.2,29,29.63,10.0,NE,9.2,-,N/A,,Clear,50,2013-09-22 11:15:00
4:35 AM,73.4,39.2,29,29.63,10.0,NE,10.4,16.1,N/A,,Clear,50,2013-09-22 11:35:00
4:55 AM,73.4,37.4,27,29.63,10.0,SSE,12.7,-,N/A,,Clear,150,2013-09-22 11:55:00
5:15 AM,73.4,37.4,27,29.63,10.0,SSE,15.0,-,N/A,,Clear,160,2013-09-22 12:15:00
5:35 AM,73.4,35.6,25,29.64,10.0,South,16.1,19.6,N/A,,Clear,190,2013-09-22 12:35:00
5:55 AM,73.4,33.8,23,29.64,10.0,South,9.2,-,N/A,,Clear,180,2013-09-22 12:55:00
6:15 AM,71.6,39.2,31,29.65,10.0,SSE,6.9,-,N/A,,Clear,160,2013-09-22 13:15:00
6:35 AM,69.8,39.2,33,29.67,10.0,SE,11.5,-,N/A,,Clear,130,2013-09-22 13:35:00
6:55 AM,69.8,37.4,31,29.69,10.0,SW,16.1,-,N/A,,Clear,230,2013-09-22 13:55:00
7:15 AM,71.6,35.6,27,29.70,10.0,South,8.1,-,N/A,,Clear,170,2013-09-22 14:15:00
7:35 AM,71.6,35.6,27,29.71,10.0,SSE,11.5,-,N/A,,Clear,150,2013-09-22 14:35:00
7:55 AM,71.6,35.6,27,29.70,10.0,South,6.9,-,N/A,,Clear,190,2013-09-22 14:55:00
8:15 AM,71.6,37.4,29,29.71,10.0,SSE,9.2,-,N/A,,Clear,160,2013-09-22 15:15:00
8:35 AM,71.6,35.6,27,29.72,10.0,SSE,6.9,-,N/A,,Clear,160,2013-09-22 15:35:00
8:55 AM,73.4,35.6,25,29.73,10.0,ESE,3.5,-,N/A,,Clear,120,2013-09-22 15:55:00
9:15 AM,75.2,35.6,24,29.74,10.0,NNE,5.8,-,N/A,,Clear,30,2013-09-22 16:15:00
9:35 AM,75.2,33.8,22,29.75,10.0,NNE,9.2,-,N/A,,Clear,20,2013-09-22 16:35:00
9:55 AM,75.2,35.6,24,29.76,10.0,Calm,Calm,-,N/A,,Clear,0,2013-09-22 16:55:00
10:15 AM,75.2,35.6,24,29.74,10.0,North,4.6,-,N/A,,Clear,10,2013-09-22 17:15:00
10:35 AM,77.0,35.6,22,29.75,10.0,NNE,6.9,-,N/A,,Clear,30,2013-09-22 17:35:00
10:55 AM,77.0,35.6,22,29.75,10.0,North,4.6,-,N/A,,Clear,10,2013-09-22 17:55:00
11:15 AM,78.8,35.6,21,29.74,10.0,ENE,3.5,-,N/A,,Clear,60,2013-09-22 18:15:00
11:35 AM,80.6,33.8,18,29.73,10.0,North,4.6,-,N/A,,Clear,10,2013-09-22 18:35:00
11:55 AM,80.6,32.0,17,29.72,10.0,SSW,6.9,-,N/A,,Clear,210,2013-09-22 18:55:00
12:15 PM,80.6,32.0,17,29.72,10.0,Calm,Calm,-,N/A,,Clear,0,2013-09-22 19:15:00
12:35 PM,82.4,32.0,16,29.71,10.0,SW,3.5,-,N/A,,Clear,220,2013-09-22 19:35:00
12:55 PM,82.4,32.0,16,29.71,10.0,NE,8.1,-,N/A,,Clear,50,2013-09-22 19:55:00
1:15 PM,84.2,32.0,15,29.70,10.0,North,5.8,-,N/A,,Clear,350,2013-09-22 20:15:00
1:35 PM,84.2,30.2,14,29.70,10.0,Calm,Calm,-,N/A,,Clear,0,2013-09-22 20:35:00
1:55 PM,86.0,30.2,13,29.70,10.0,Calm,Calm,-,N/A,,Clear,0,2013-09-22 20:55:00
2:15 PM,84.2,30.2,14,29.70,10.0,North,9.2,-,N/A,,Clear,350,2013-09-22 21:15:00
2:35 PM,84.2,28.4,13,29.70,10.0,North,8.1,-,N/A,,Clear,10,2013-09-22 21:35:00
2:55 PM,86.0,28.4,12,29.69,10.0,North,8.1,-,N/A,,Clear,360,2013-09-22 21:55:00
3:15 PM,84.2,28.4,13,29.69,10.0,WSW,5.8,-,N/A,,Clear,240,2013-09-22 22:15:00
3:35 PM,84.2,28.4,13,29.69,10.0,North,4.6,-,N/A,,Clear,10,2013-09-22 22:35:00
3:55 PM,84.2,30.2,14,29.69,10.0,NW,8.1,-,N/A,,Clear,310,2013-09-22 22:55:00
4:15 PM,84.2,32.0,15,29.70,10.0,NW,4.6,-,N/A,,Clear,310,2013-09-22 23:15:00
4:35 PM,84.2,32.0,15,29.70,10.0,NE,3.5,-,N/A,,Clear,40,2013-09-22 23:35:00
4:55 PM,84.2,32.0,15,29.69,10.0,Calm,Calm,-,N/A,,Clear,0,2013-09-22 23:55:00
5:15 PM,86.0,32.0,14,29.70,10.0,WNW,3.5,-,N/A,,Clear,300,2013-09-23 00:15:00
5:35 PM,84.2,32.0,15,29.70,10.0,NW,3.5,-,N/A,,Clear,320,2013-09-23 00:35:00
5:55 PM,84.2,32.0,15,29.70,10.0,ENE,5.8,-,N/A,,Clear,70,2013-09-23 00:55:00
6:15 PM,84.2,32.0,15,29.70,10.0,Calm,Calm,-,N/A,,Clear,0,2013-09-23 01:15:00
6:35 PM,84.2,32.0,15,29.71,10.0,Calm,Calm,-,N/A,,Clear,0,2013-09-23 01:35:00
6:55 PM,82.4,33.8,17,29.71,10.0,Calm,Calm,-,N/A,,Clear,0,2013-09-23 01:55:00
7:15 PM,82.4,35.6,19,29.72,10.0,ESE,4.6,-,N/A,,Clear,120,2013-09-23 02:15:00
7:35 PM,80.6,35.6,20,29.73,10.0,East,4.6,-,N/A,,Clear,100,2013-09-23 02:35:00
7:55 PM,80.6,35.6,20,29.74,10.0,NNE,4.6,-,N/A,,Clear,20,2013-09-23 02:55:00
8:15 PM,77.0,35.6,22,29.75,10.0,Calm,Calm,-,N/A,,Clear,0,2013-09-23 03:15:00
8:35 PM,78.8,35.6,21,29.76,10.0,Calm,Calm,-,N/A,,Clear,0,2013-09-23 03:35:00
8:55 PM,78.8,35.6,21,29.76,10.0,Calm,Calm,-,N/A,,Clear,0,2013-09-23 03:55:00
9:15 PM,77.0,35.6,22,29.77,10.0,Calm,Calm,-,N/A,,Clear,0,2013-09-23 04:15:00
9:35 PM,77.0,37.4,24,29.78,10.0,Calm,Calm,-,N/A,,Clear,0,2013-09-23 04:35:00
9:55 PM,75.2,35.6,24,29.78,10.0,Calm,Calm,-,N/A,,Clear,0,2013-09-23 04:55:00
10:15 PM,75.2,35.6,24,29.78,10.0,NNE,6.9,-,N/A,,Clear,20,2013-09-23 05:15:00
10:35 PM,75.2,35.6,24,29.79,10.0,Calm,Calm,-,N/A,,Clear,0,2013-09-23 05:35:00
10:55 PM,75.2,35.6,24,29.79,10.0,Calm,Calm,-,N/A,,Clear,0,2013-09-23 05:55:00
11:15 PM,73.4,37.4,27,29.79,10.0,Calm,Calm,-,N/A,,Clear,0,2013-09-23 06:15:00
11:35 PM,73.4,37.4,27,29.79,10.0,Calm,Calm,-,N/A,,Clear,0,2013-09-23 06:35:00
11:55 PM,71.6,37.4,29,29.79,10.0,Calm,Calm,-,N/A,,Clear,0,2013-09-23 06:55:00